FENGYUN 1C DEB

Satellite information

Favourite Embed

Satellite Type and Status

DEBRISIN ORBIT

Key statistics

Satellite FENGYUN 1C DEB at a glance.

Uptime

9554

Days in orbit

Revolutions

≈ 14.0

Per day

Orbit

SSO

Sun Synchronous Orbit

Inclination

98.4

Latest

Satellite identification and parameters

Extended collection of information and parameters for FENGYUN 1C DEB.

Object identification

Identified? True

Debris? True

Object name: FENGYUN 1C DEB

International designator: 1999-025HS

Object number (NORAD): 29920

Object ID (CCSDS): 29920

Country: PEOPLES REPUBLIC OF CHINA (PRC)

Current information (Y/N): Y

RCS size: SMALL

Orbital parameters

Period: 102.635 minutes

Inclination: 98.4094 deg

SMA: 7261.435 km

Apoapsis: 975.577 km

Periapsis: 791.022 km

RAAN: 52.0902 deg

Eccentricy: 0.0127079

Argument of periapsis: 17.8898 deg

Mean anomaly: 342.6684 deg

Mean motion: 14.03036962 rev/day

Mean motion (dot): 0.00001174 rev/day2

B* drag term: 0.00072733 1/REarth

Two-line elements (TLE)

Creation date: July 4, 2025, 6:39 p.m.

Reference frame: TEME

Reference center: EARTH

Epoch: July 4, 2025, 7:55 a.m. UTC

TLE line 0: 0 FENGYUN 1C DEB

TLE line 1: 1 29920U 99025HS 25185.33023080 .00001174 00000-0 72733-3 0 9995

TLE line 2: 2 29920 98.4094 52.0902 0127079 17.8898 342.6684 14.03036962940249

Live tracking on map

Real-time ground track for satellite FENGYUN 1C DEB.

In-orbit conjunctions

A list of the most updated potential collisions computed for object FENGYUN 1C DEB.

Target Orbit TCA Probability of collision Miss distance Type
METEOR M2-3 DEB SSO 2025-02-22 08:59:48 0.0002202879 290.0 (m) DEBRIS
METEOR 2-17 DEB LEO 2025-02-01 01:23:23 0.000505161 33.0 (m) DEBRIS
COSMOS 800 LEO 2024-12-10 00:57:01 0.0002901406 540.0 (m) PAYLOAD
METEOR 2-8 DEB LEO 2024-09-26 10:34:28 0.000264342 693.0 (m) DEBRIS
COSMOS 1275 DEB LEO 2024-08-19 13:29:45 0.0001755462 48.0 (m) DEBRIS

Associated space launch

Chinese polar orbiting meteorological satellite

FENGYUN 1C DEB was lifted into orbit during the mission ‘Long March 4B | Feng Yun 1C’, on board a Long March 4B space rocket.

The launch took place on May 10, 1999, 1:33 a.m. from Launch Complex 7.

For more information about the launch, click the button.

Launch to space Long March 4B | Feng Yun 1C
Long March 4B | Feng Yun 1C

Agency: N/A

Status: Launch Successful

Launch date: May 10, 1999, 1:33 a.m. UTC

Rocket: Long March 4B

Launch pad: Launch Complex 7

Location: Taiyuan Satellite Launch Center, People's Republic of China

...

Latest news about this satellite

There are no fresh news available about this satellite. Check back as we update our databases every day.


Newsletter sign-up

Weekly statistics, charts and insights to help you stay on top of the space industry.